Theta_e
307 299 294 297 299 297 295 295 293 296 299 298 298 299 302 306 307 306 307 308 308 310 316 318 320 322 325 329 330 330 330 330 330 329 330 330 328 330 330 331 332 331 330 328
300 294 298 301 300 297 295 293 293 296 297 296 297 296 300 302 303 305 306 307 308 310 311 312 314 316 316 319 323 326 328 329 329 328 329 329 330 330 331 332 331 331 329 328
294 296 301 298 298 296 296 292 292 292 295 297 295 293 296 300 302 304 304 306 307 308 309 311 313 315 316 315 316 320 323 326 328 328 328 328 328 327 328 329 330 331 332 332
296 300 298 297 295 297 291 298 296 294 292 287 295 284 293 294 296 299 302 304 304 306 308 309 311 313 315 316 317 317 319 323 326 327 327 325 324 324 326 328 329 330 330 330
293 296 295 294 295 298 293 298 296 296 292 292 291 288 290 294 293 296 299 302 305 307 307 308 309 311 312 314 315 316 317 320 324 326 326 326 325 327 328 326 326 327 328 328
297 300 299 297 298 299 298 296 295 294 293 284 289 288 288 291 293 296 299 300 302 303 305 306 308 309 310 313 314 314 313 315 320 323 324 324 324 325 324 323 323 324 325 325
293 294 297 299 295 298 297 292 284 282 282 281 287 287 289 294 295 296 298 300 302 303 302 303 304 306 306 308 311 313 313 311 316 321 322 323 324 325 323 324 323 323 324 324
285 284 294 298 295 293 293 292 283 277 278 281 286 283 288 296 298 298 298 299 300 301 303 303 304 305 307 307 309 311 312 312 314 319 321 323 323 323 323 324 324 324 325 324
287 286 295 296 298 297 292 288 293 284 279 281 285 289 292 296 296 297 298 298 299 300 302 304 305 306 307 307 308 311 313 314 315 319 321 321 322 322 321 322 322 318 314 311
290 285 291 295 298 298 295 297 285 287 279 277 282 284 286 290 293 296 297 299 299 300 300 301 304 306 306 307 308 308 311 314 316 317 318 318 318 319 316 312 310 310 309 307
292 289 287 292 291 290 290 289 290 291 287 280 279 284 291 293 295 294 297 298 299 299 300 301 303 304 304 304 305 307 306 307 309 310 311 310 309 309 308 308 308 307 306 304
295 290 284 287 293 295 296 292 291 285 283 286 285 285 294 294 294 295 297 298 299 299 301 302 302 303 302 303 303 304 305 305 306 306 306 306 306 306 306 306 305 304 302 301
293 287 281 283 288 292 290 293 294 293 291 285 282 285 296 297 295 296 296 298 297 297 299 301 300 301 303 303 302 302 303 304 304 304 303 303 303 304 304 303 302 300 299 298
293 288 285 280 283 288 286 290 293 291 285 286 286 289 294 294 294 296 298 298 298 297 298 300 301 302 302 302 302 301 301 303 303 302 302 302 302 302 302 301 299 298 298 296
288 284 287 288 289 289 287 288 290 288 290 286 288 290 293 296 297 298 299 298 297 297 298 300 300 301 302 301 300 300 301 302 303 302 301 300 301 300 298 297 297 297 296 295
289 282 283 280 285 286 285 289 289 290 289 290 291 291 298 299 300 299 298 298 298 298 300 301 300 300 300 300 301 299 299 300 302 301 299 299 297 296 295 295 295 294 294 293
286 284 281 278 283 282 279 286 288 289 290 289 286 293 298 298 298 299 299 299 299 301 302 301 301 302 302 302 300 300 300 300 299 299 299 296 294 293 293 293 292 292 291 291
284 283 283 277 279 271 283 290 291 289 291 293 293 295 297 298 301 302 303 302 301 301 302 302 303 303 302 301 300 299 299 297 297 298 298 295 292 292 292 291 290 290 290 289
288 284 280 276 276 279 282 285 287 286 286 294 292 295 296 298 298 298 303 303 302 303 304 303 296 293 293 291 292 293 294 294 294 294 295 293 292 290 289 289 289 288 288 287
285 286 281 279 273 271 281 288 291 289 280 290 292 294 295 296 290 295 301 302 301 299 292 290 287 286 286 285 289 288 286 286 284 284 285 286 287 288 287 286 285 285 285 284
278 278 275 276 276 279 287 289 290 278 281 291 293 294 294 293 296 299 293 289 287 287 284 283 282 280 279 282 283 281 280 277 278 279 280 279 280 281 281 281 281 281 281 281
278 277 277 277 275 273 290 288 283 288 293 293 293 293 294 296 296 290 286 283 282 281 280 280 277 275 275 278 278 276 274 274 274 276 276 276 276 278 277 277 278 278 279 279
277 282 281 282 282 290 290 291 293 291 291 291 289 289 288 288 288 284 280 280 279 278 277 276 274 272 272 272 275 272 271 272 272 273 272 273 273 274 274 275 275 277 277 277
283 286 282 283 286 288 290 292 288 287 287 284 283 282 282 284 283 279 278 277 275 274 273 273 272 270 269 269 268 269 269 269 268 270 271 272 271 272 273 274 274 274 274 275
283 285 283 283 286 288 288 287 286 285 282 280 278 278 280 281 279 278 275 274 273 272 271 271 269 268 267 267 266 266 267 267 269 269 269 270 271 270 271 271 272 272 273 273
285 283 281 281 287 287 287 282 282 281 280 278 277 274 275 277 275 274 272 271 270 270 269 268 267 266 265 265 264 264 264 265 266 268 268 268 269 269 269 269 270 271 271 272
Wind_Speed
7 8 17 18 20 7 5 11 9 3 2 5 16 20 20 17 15 15 13 13 16 18 17 15 14 13 13 13 14 15 15 15 12 11 11 11 11 10 10 10 14 14 13 11
5 18 13 7 10 11 10 9 9 6 2 4 12 18 18 20 19 21 22 21 20 16 14 14 15 14 16 16 16 15 16 16 14 11 11 9 9 10 11 10 13 14 14 12
15 2 10 12 10 13 14 16 11 9 4 6 11 24 22 17 23 22 20 20 20 20 20 20 20 17 15 16 17 15 16 16 15 16 10 8 6 4 7 10 10 12 14 13
13 13 9 13 17 13 14 10 10 9 6 8 2 14 16 4 10 12 16 17 20 23 21 20 18 18 18 16 13 14 14 14 14 16 14 16 12 12 11 10 8 8 12 12
7 7 16 11 8 14 5 8 10 11 11 10 16 11 7 2 10 13 16 20 19 17 17 20 19 14 14 11 12 13 14 13 14 15 16 12 13 9 8 6 8 9 8 9
10 1 11 10 6 14 10 9 5 3 4 9 16 14 14 14 11 11 13 12 11 11 12 15 13 11 13 12 12 11 13 14 13 14 16 16 16 13 9 9 7 6 5 6
6 12 4 5 9 6 14 13 4 5 6 10 4 13 22 5 8 11 13 10 6 6 7 9 9 8 10 13 14 12 14 15 14 15 15 16 16 13 12 10 7 7 6 5
12 9 17 12 11 7 16 16 6 9 7 4 3 14 9 5 11 13 14 15 12 12 10 10 11 10 10 10 11 12 12 13 12 14 15 13 12 8 8 8 6 6 6 6
9 12 4 7 8 15 10 16 10 2 3 4 8 10 10 11 13 15 13 10 11 10 10 11 10 8 7 7 8 9 9 10 12 12 10 10 10 9 8 8 7 6 7 6
2 5 2 12 9 13 13 10 6 6 7 10 11 11 12 4 9 14 17 13 9 7 6 7 6 5 5 4 4 5 6 7 7 8 8 8 9 9 8 8 9 9 8 8
3 4 4 4 13 16 9 6 6 7 10 7 8 9 2 10 11 10 6 7 6 6 5 5 4 4 3 3 4 4 5 5 6 6 7 8 8 9 9 8 9 9 9 8
14 6 6 9 2 10 20 19 15 9 11 11 14 18 4 1 3 4 7 5 1 3 5 4 4 4 4 6 6 6 6 6 5 6 6 7 8 8 9 9 8 8 8 7
11 8 13 12 5 8 11 20 20 21 10 17 13 17 7 14 10 7 9 6 3 2 4 5 3 5 6 6 6 6 6 6 6 7 7 8 9 9 9 9 8 8 7 7
7 10 13 18 19 13 12 21 24 22 16 22 19 30 21 12 11 15 15 12 4 4 5 5 4 6 7 8 8 9 8 8 7 8 9 10 10 10 9 9 9 8 8 8
4 5 8 20 20 17 15 18 22 27 29 24 26 29 28 22 20 17 8 4 5 8 9 9 7 7 7 8 10 10 10 10 10 11 11 12 9 9 8 8 8 7 7 6
10 6 12 19 15 15 23 22 19 18 19 24 29 29 26 20 16 16 14 16 14 15 15 9 8 10 10 10 10 8 10 11 10 12 13 9 8 8 7 7 7 7 6 6
5 4 3 6 6 12 8 14 22 23 25 25 27 32 29 27 21 16 15 12 16 18 16 13 14 14 12 9 9 10 11 8 10 11 10 8 9 9 8 6 6 6 7 5
6 6 6 11 10 20 6 13 16 20 24 21 19 23 26 26 23 19 16 17 21 20 17 18 15 12 6 4 5 7 6 7 9 11 10 7 8 8 7 7 6 5 3 4
16 9 8 9 13 11 15 17 11 13 19 22 24 27 31 29 27 22 22 24 25 18 16 13 1 2 3 5 5 4 1 1 1 3 3 4 6 7 6 5 4 2 1 2
15 14 9 9 13 20 18 11 8 1 9 15 18 22 28 26 18 18 16 16 18 8 2 3 5 5 6 7 5 8 8 8 8 8 7 8 7 6 7 6 4 2 1 4
5 6 16 13 11 8 11 15 8 10 15 19 14 17 23 22 18 22 4 3 4 4 5 7 8 9 9 7 7 10 9 10 7 7 7 9 8 8 7 5 3 2 3 4
10 6 6 6 7 10 15 3 11 12 13 10 7 11 14 17 16 6 4 5 5 6 7 7 8 9 9 9 9 11 10 8 7 6 8 8 7 6 5 5 4 4 4 5
10 13 9 7 5 3 7 14 10 2 5 7 4 3 9 12 8 0 5 6 7 6 7 7 9 9 10 11 8 10 7 7 7 6 6 7 6 6 6 5 4 4 5 5
9 12 11 16 18 22 20 10 3 2 5 3 3 5 6 11 5 7 7 9 8 7 7 7 8 9 9 9 9 9 7 6 5 5 6 5 5 5 5 4 4 3 4 5
11 8 16 18 18 22 15 5 3 5 2 1 4 4 4 2 3 7 7 8 7 7 6 8 8 8 7 6 7 7 6 5 4 4 4 5 4 5 4 4 3 4 4 5
14 17 11 14 12 4 5 0 2 4 2 1 2 5 8 5 5 8 9 7 6 6 5 7 9 7 6 5 6 5 6 6 5 4 4 4 4 4 4 4 4 4 6 9
Wind_Direction
175 206 211 202 208 234 261 221 230 232 225 245 242 252 257 255 246 253 248 247 249 246 251 250 247 234 232 232 230 222 216 212 205 206 206 214 218 220 225 228 226 225 225 214
176 230 230 231 201 207 221 225 227 266 214 232 278 269 263 260 251 248 250 252 251 249 247 245 244 234 229 227 224 226 223 213 207 205 206 214 212 222 219 219 223 225 226 218
212 167 197 190 201 206 220 230 226 252 323 239 293 277 257 243 243 245 241 246 252 251 250 247 244 235 230 226 224 222 222 218 211 211 204 209 216 217 211 219 221 219 219 220
235 233 187 201 215 206 227 216 224 237 261 261 345 283 273 238 241 230 243 240 242 243 241 245 246 242 233 227 219 222 227 222 214 207 207 207 211 219 220 219 214 209 213 218
201 185 199 208 219 195 219 174 203 223 234 276 241 267 254 246 257 257 240 237 236 240 247 250 247 252 253 242 228 229 227 222 213 207 209 210 219 227 223 210 208 205 198 207
241 120 214 209 170 187 144 129 105 123 226 250 237 223 252 236 239 247 259 254 252 243 246 249 251 257 252 243 233 224 221 221 211 207 210 212 216 216 211 212 205 189 188 187
197 215 181 177 167 180 183 175 166 209 207 249 27 209 252 268 255 242 265 261 242 246 260 256 253 245 247 238 231 226 224 226 214 209 210 212 218 216 217 214 207 192 185 190
213 219 202 187 200 178 197 193 195 215 204 268 159 230 254 261 269 269 258 262 282 272 255 255 256 268 268 247 234 224 215 222 210 209 212 210 213 214 213 205 198 195 192 181
206 231 173 206 181 170 181 218 213 331 90 269 230 252 265 234 240 247 257 256 258 266 251 235 254 261 255 239 223 219 217 215 207 202 198 196 195 195 187 179 173 166 162 161
181 257 173 191 191 224 197 166 180 219 226 239 247 263 253 242 226 234 250 253 259 272 265 245 260 265 254 232 202 196 198 193 180 178 182 177 177 180 168 164 168 167 161 161
140 248 117 157 201 186 189 197 229 214 224 241 268 253 300 256 258 267 270 255 242 275 279 262 258 231 226 232 206 191 179 171 169 172 169 168 166 164 164 171 171 170 162 165
209 238 225 200 352 282 211 205 192 205 198 238 267 260 104 298 272 264 268 281 291 289 281 241 219 221 213 216 207 210 207 203 194 182 182 181 170 170 175 179 177 168 169 166
200 229 246 242 229 229 233 231 219 231 254 235 233 257 233 225 241 257 273 277 318 244 273 269 225 221 225 228 229 230 224 215 200 192 193 191 191 188 189 185 174 175 167 170
303 233 221 237 242 234 215 225 224 223 231 243 239 261 245 246 243 253 256 267 258 274 266 278 264 248 231 227 225 225 224 217 210 204 207 209 208 200 195 188 184 182 182 178
339 287 245 256 265 268 261 254 229 230 232 233 241 247 257 250 251 248 294 284 232 229 233 241 250 250 243 237 233 228 224 213 207 210 213 219 207 207 196 187 186 184 187 189
161 261 319 301 263 269 258 246 249 237 253 254 257 259 264 263 269 266 244 252 264 263 261 271 258 262 250 229 229 228 227 218 206 211 215 212 197 198 196 187 178 181 186 194
176 218 233 265 357 320 281 257 243 247 252 254 250 250 263 267 261 253 252 255 253 258 263 256 252 253 252 234 222 219 226 218 205 217 219 204 195 196 193 177 178 185 195 194
230 217 238 260 270 267 252 297 251 238 240 246 256 276 277 267 260 261 265 257 252 249 250 250 251 247 254 278 256 256 231 213 215 221 221 207 193 192 172 171 183 178 188 210
217 223 246 243 248 274 280 274 241 250 255 246 247 253 258 266 268 263 248 249 250 255 254 259 353 17 10 3 343 307 192 213 282 298 248 195 187 168 154 158 165 137 237 284
224 224 235 241 256 259 257 261 218 198 267 249 254 254 256 258 263 267 264 252 244 234 130 142 88 73 60 20 30 82 69 69 56 40 49 56 64 95 112 110 114 91 336 291
192 218 222 229 244 262 257 247 149 250 263 267 260 252 255 257 250 266 23 26 46 96 100 90 79 67 45 43 77 77 73 61 42 46 56 55 49 66 62 64 52 9 311 293
207 206 213 215 232 247 224 128 218 228 245 251 273 268 273 273 289 343 49 90 78 79 72 68 83 77 56 46 78 78 64 39 29 45 56 55 53 51 43 38 19 353 333 314
237 220 240 224 229 256 195 224 213 64 240 277 263 339 314 293 293 204 128 114 94 80 87 76 85 77 55 48 50 80 51 30 27 44 56 52 44 33 30 33 24 355 341 327
232 243 242 261 259 254 260 250 255 216 252 9 328 280 270 271 203 155 146 121 109 94 77 78 84 74 65 54 53 56 49 31 28 47 51 46 48 29 36 20 14 4 347 332
237 236 231 249 261 268 261 236 313 298 342 359 42 7 337 286 152 128 113 101 104 92 85 83 75 76 65 51 55 42 35 38 59 53 37 33 35 35 33 36 14 358 334 328
224 240 237 246 266 258 281 57 278 246 256 207 136 58 48 91 111 110 100 87 75 78 62 69 83 68 55 56 56 41 25 21 29 57 42 33 19 22 22 11 1 351 323 323